RH
69 72 74 75 76 77 78 79 79 79 78 78 78 78 77 77 77 76 75 75 75 75 75 74 74 72 70 68 65 62 61 60 58 58 57 57 57 57 58 58 59 59 59 58 57 56 56 55 55 54 54 54 54 55 55 56 57 58 58 59 59 58 58 58 58 58 59 59 59
62 64 66 67 69 70 72 73 75 76 77 77 78 78 78 78 78 76 75 72 70 69 67 66 64 63 62 61 60 59 58 57 56 55 55 54 54 55 55 55 54 54 53 51 50 50 49 48 48 48 48 48 49 49 50 50 51 51 52 52 52 53 54 55 56 56 57 58 59
59 60 60 60 61 62 64 65 67 68 69 70 71 72 73 74 73 72 70 68 66 64 62 61 60 60 59 59 58 57 57 55 54 53 52 52 51 51 50 50 49 48 47 46 45 45 44 44 44 44 44 44 44 45 45 45 46 46 46 46 46 47 48 50 51 53 55 56 57
57 57 57 57 58 58 59 59 61 62 63 63 64 65 66 66 66 66 65 64 64 63 62 61 60 59 59 58 57 56 55 54 54 53 52 52 51 50 49 49 48 47 46 45 45 44 43 43 42 42 41 41 42 42 42 43 43 43 43 43 43 44 45 46 47 49 51 53 55
56 55 56 56 56 56 57 58 59 59 59 60 60 61 61 61 61 61 61 61 61 60 59 58 58 57 56 56 55 55 55 54 54 54 54 53 53 52 51 51 50 49 49 48 47 47 46 45 44 43 42 42 41 41 42 43 43 43 43 43 43 43 44 44 45 46 48 50 51
55 55 55 55 55 55 56 56 57 57 58 58 58 58 57 57 57 57 56 56 55 54 53 53 53 52 53 53 53 53 53 54 54 54 54 55 54 54 54 54 54 53 53 52 52 51 50 49 48 46 45 44 43 43 44 44 45 44 45 45 45 45 45 45 45 46 47 48 49
55 55 55 55 55 55 55 55 55 55 55 54 54 53 52 51 51 50 49 49 48 47 46 46 46 47 47 47 48 48 49 49 50 50 51 51 52 52 53 53 54 54 55 55 54 54 53 52 51 49 47 46 45 45 45 46 46 46 47 47 46 47 47 47 47 47 47 48 48
55 54 54 53 54 54 54 53 53 52 51 49 48 47 46 45 44 43 43 42 42 42 41 41 41 41 41 41 41 42 42 42 43 43 43 43 44 45 46 47 48 50 51 52 53 54 54 53 52 51 49 48 46 46 45 46 47 47 48 48 49 49 49 49 49 49 48 48 48
51 50 49 49 48 48 48 47 46 45 43 42 41 40 39 39 39 38 38 38 38 38 38 38 37 37 36 36 36 36 36 36 36 36 37 37 38 38 39 39 40 42 43 45 47 49 50 51 51 51 50 49 47 46 45 46 46 47 48 49 50 50 51 51 51 51 50 50 49
44 43 42 41 41 40 39 39 38 37 36 35 34 34 33 34 34 34 35 35 35 35 35 34 33 33 32 31 31 31 30 30 30 30 31 31 32 32 32 33 34 35 36 37 39 40 42 44 46 47 47 47 46 45 45 45 45 46 48 49 50 51 52 52 52 52 52 51 50
37 36 36 35 34 33 33 32 31 31 30 30 30 30 30 30 31 31 31 31 32 32 31 30 29 29 28 28 27 27 26 26 26 27 27 27 27 27 27 27 28 29 30 31 31 33 34 36 37 39 40 41 41 42 42 43 44 45 46 48 49 51 52 53 53 53 53 53 52
32 32 31 31 30 30 30 30 29 29 29 29 29 29 29 29 29 29 29 30 30 29 28 27 27 26 26 26 26 25 25 25 25 25 25 25 25 25 25 25 25 26 26 27 27 28 28 29 31 32 33 35 36 36 38 39 41 42 44 45 47 49 51 52 53 54 54 53 53
29 29 29 29 28 29 29 30 30 30 30 30 30 30 30 30 29 29 30 30 29 29 28 27 27 26 26 26 26 26 26 26 26 26 26 26 25 25 25 25 24 24 25 25 25 25 26 26 27 28 29 30 31 33 34 35 37 39 41 42 44 46 48 50 51 53 54 54 54
28 28 28 28 28 29 30 30 31 31 31 31 31 31 31 31 31 31 31 31 30 30 29 29 28 28 28 28 28 28 28 28 28 28 27 27 26 26 25 25 24 24 24 24 24 24 25 25 26 27 28 28 29 30 32 33 35 36 38 39 40 42 44 46 48 50 52 54 55
27 28 28 28 29 30 31 32 32 32 33 33 33 33 32 32 32 32 32 32 32 32 31 31 30 30 30 30 30 30 30 30 29 29 28 28 27 26 25 25 24 24 24 24 24 25 25 25 26 27 27 28 29 30 31 32 34 35 36 37 38 39 41 43 46 48 51 54 55
28 29 29 30 30 31 32 33 33 33 34 34 34 34 34 34 33 33 34 34 34 33 33 33 32 32 31 31 31 31 31 30 30 29 28 27 27 26 26 25 25 24 25 24 25 25 26 26 27 27 28 28 29 30 31 32 34 35 35 36 37 39 40 42 45 48 51 54 57
30 30 30 31 32 33 33 33 34 34 34 35 35 35 35 35 35 35 35 35 35 35 34 34 33 33 32 32 31 31 30 30 29 28 28 28 27 27 26 26 26 26 26 26 26 26 27 27 28 28 29 30 31 32 33 34 35 36 36 37 38 40 42 44 47 50 54 58 61
31 31 31 32 33 33 34 34 35 35 35 36 36 36 36 37 37 36 36 36 36 35 35 34 33 33 32 31 31 30 29 29 29 28 28 28 28 28 28 28 27 28 28 28 28 28 28 29 29 30 31 32 33 34 35 36 37 38 39 40 42 44 47 50 53 56 59 62 64
33 33 33 34 34 34 35 36 36 37 37 37 37 37 37 37 37 36 36 35 35 34 34 33 32 32 31 31 30 30 30 30 30 30 30 30 30 30 30 30 29 30 30 30 30 30 31 31 32 33 34 36 36 37 38 39 40 41 43 45 48 51 54 57 60 62 64 65 66
35 35 35 35 36 36 37 37 38 38 38 38 38 37 37 36 36 35 35 34 34 33 33 33 33 32 32 32 31 31 31 31 31 32 31 31 31 31 31 31 32 31 32 32 33 33 34 35 36 37 38 39 41 41 42 43 45 46 49 52 55 58 61 64 65 65 66 66 67
38 38 37 37 37 38 38 38 38 38 38 38 37 37 36 36 35 35 35 34 34 34 34 34 34 33 33 33 33 32 32 32 32 33 33 33 33 33 33 33 34 34 35 36 36 36 37 38 39 41 42 44 45 46 47 49 51 54 57 60 62 64 66 66 66 66 67 68 68
40 40 39 39 39 39 39 39 39 38 38 38 37 37 37 37 36 36 36 35 35 35 34 34 34 33 33 33 33 33 33 33 33 33 34 34 35 35 36 37 37 38 38 39 39 40 41 42 44 46 48 49 50 52 54 57 60 62 64 65 66 66 66 66 67 67 69 70 70
41 41 40 40 40 40 40 40 39 38 38 38 38 38 38 38 37 37 36 36 36 35 35 35 34 34 34 35 35 35 35 35 36 36 37 38 38 39 40 42 42 43 44 45 45 46 47 49 51 53 54 56 58 61 63 66 67 68 67 67 66 66 66 66 67 69 70 70 70
41 41 41 41 41 40 40 40 39 39 38 38 38 38 38 37 37 36 36 36 36 36 36 36 36 37 37 38 38 39 39 40 41 41 42 43 44 45 47 48 49 50 51 51 52 53 55 56 58 60 62 64 66 68 70 70 69 68 67 65 65 65 65 67 68 70 70 71 70
41 41 41 41 40 40 40 39 38 38 37 36 36 36 36 36 36 37 37 38 38 38 39 40 40 41 42 43 43 44 44 45 46 47 48 49 50 51 52 54 55 55 56 57 58 60 62 64 66 68 70 71 72 72 71 70 68 66 65 64 64 65 66 68 70 71 72 71 70
41 41 40 40 40 39 38 37 36 35 35 35 35 36 36 37 38 39 39 40 41 42 43 44 45 45 46 47 47 47 48 49 50 51 52 53 54 55 56 58 59 60 62 64 65 67 69 71 72 73 74 74 73 72 70 68 66 66 65 65 66 67 69 70 72 73 73 72 71
40 39 39 38 37 36 35 34 34 34 35 36 37 37 38 39 40 41 42 43 44 45 46 47 48 48 49 49 50 51 51 52 53 54 55 57 58 59 60 61 63 65 67 69 71 72 73 75 75 75 75 74 73 71 69 68 67 67 67 68 69 70 71 72 74 74 74 73 70
38 37 36 36 35 35 34 34 35 36 38 38 40 41 42 43 44 44 45 46 47 48 48 49 50 50 50 51 52 52 53 54 55 56 57 58 59 61 63 64 66 68 70 71 72 73 74 74 74 74 73 73 72 71 70 69 70 70 70 71 72 72 73 74 75 75 74 73 70
36 35 35 35 35 35 36 37 39 40 41 43 44 46 47 48 47 47 48 48 49 50 50 51 51 51 52 52 53 54 54 55 56 57 57 59 60 62 64 66 68 69 70 72 72 72 72 72 72 72 72 71 72 72 72 73 73 74 74 74 74 74 75 76 76 75 74 73 69
36 36 36 36 37 38 40 41 42 44 46 48 50 51 51 51 51 50 50 51 51 51 52 52 53 53 54 54 55 55 56 56 56 57 58 59 60 62 64 65 67 68 69 70 71 71 71 71 71 71 71 72 73 74 75 76 76 76 76 76 76 76 77 77 76 75 74 72 69
36 37 38 40 41 43 45 46 48 50 51 53 54 54 54 54 53 53 53 53 53 53 54 54 54 55 55 56 57 57 57 57 57 57 58 58 59 60 62 63 65 66 67 68 69 70 71 71 71 71 72 72 72 73 73 74 76 77 77 77 77 77 77 77 76 75 73 70 67
38 40 42 44 47 49 51 52 54 55 57 57 57 57 57 56 55 55 54 54 54 55 55 55 56 57 58 58 58 58 58 58 58 58 58 58 58 59 60 61 62 63 65 66 67 68 69 70 70 70 69 69 69 69 70 71 73 74 75 76 76 76 76 75 73 71 68 64 62
43 45 48 50 53 55 56 58 59 60 60 59 59 58 58 57 56 56 56 55 55 56 57 57 58 58 59 59 59 59 59 59 59 58 58 58 58 58 59 59 61 62 64 65 66 67 67 67 67 67 66 66 66 66 67 69 70 71 71 72 72 71 70 69 67 64 61 59 57
48 51 53 56 58 60 61 61 61 61 61 60 60 59 59 58 58 58 58 57 58 58 58 59 59 59 59 59 60 60 60 60 60 59 59 59 59 59 59 60 61 62 64 65 66 66 66 66 65 65 64 64 64 65 66 67 67 68 68 68 67 66 65 63 61 60 58 57 57
53 56 58 61 62 63 63 63 62 62 61 61 60 60 60 60 60 60 60 60 60 60 60 60 59 59 59 59 60 60 61 61 61 61 61 61 61 61 61 61 63 64 65 66 67 67 67 66 65 64 63 63 63 64 65 66 67 66 66 65 64 63 62 61 60 60 60 60 60
58 60 63 65 65 65 65 64 63 62 61 61 61 61 61 62 62 62 62 62 62 62 61 61 61 60 60 60 60 60 61 62 62 63 63 63 63 63 64 64 65 66 67 68 69 69 68 67 66 65 64 64 64 65 66 67 67 66 66 65 64 64 63 62 62 62 62 61 60
62 64 66 68 68 67 66 65 64 63 63 63 63 63 63 63 64 63 63 63 63 63 63 62 62 62 62 61 61 61 61 62 63 64 64 65 65 66 66 67 68 69 69 70 70 70 70 69 68 68 67 66 66 66 67 67 67 67 67 66 66 66 66 65 64 63 62 61 59
65 67 68 69 69 69 68 67 66 65 65 66 65 65 65 65 65 65 65 65 64 64 64 64 64 64 64 63 63 62 62 62 63 64 65 66 67 68 69 69 70 70 71 71 71 71 71 71 71 71 70 69 69 68 68 68 68 68 68 69 68 68 67 66 64 62 61 60 59
68 69 70 71 71 70 69 68 68 68 68 68 67 66 66 65 65 65 65 65 65 65 65 65 65 65 65 65 64 64 64 64 64 65 66 67 68 69 70 71 72 72 72 72 72 73 73 74 74 73 73 72 71 71 71 70 70 71 71 71 70 69 67 65 63 62 61 60 60
70 71 72 72 72 72 71 70 70 69 69 69 68 67 66 65 65 65 65 64 64 64 65 65 65 65 66 66 66 66 67 67 67 68 69 70 71 72 72 73 73 74 74 74 75 75 75 76 76 75 75 74 74 74 73 73 73 73 73 73 71 70 68 65 64 63 62 61 60
72 73 73 73 73 73 72 71 71 71 71 71 70 69 68 67 66 66 65 65 64 64 64 65 65 65 66 66 67 68 68 69 70 70 71 72 73 74 75 75 76 76 76 77 77 77 77 77 77 77 77 77 77 77 77 76 76 76 75 74 72 71 69 67 65 63 61 60 58